Location: Bernadets
(43.3537°N, 0.3167°E)
Time: 00:51:14
(UTC+00:00)

BREEZE-M R/B - Pass Details

Date: 24 October 2021
Orbit: 597 x 26570 km, 48.9° (Epoch: 06 December)

Event Time Altitude Azimuth Distance (km) Brightness Sun altitude
Rises 17:51:07 0° 288° (WNW) 3,409 7.7 -9.7°
Reaches altitude 10° 17:53:45 10° 296° (WNW) 2,076 6.2 -10.2°
Maximum altitude 17:57:18 45° 12° (NNE) 835 3.1 -10.8°
Enters shadow 18:00:28 15° 82° (E) 1,943 4.4 -11.4°
